Date String (YYYY-MM-DD hh:mm:ss) UTC,Instrument flags,absolute air pressure of the measurement (hPa),sample flow rate (lpm),inlet stack bypass flow (lpm),air temperature of the measurement (°C),ambient temperature measured by the external sensor (°C),aerosol sample conditioner tube jacket temperature (°C),OPC LED temperature (°C),internal box temperature (°C),relative humidity of the measurement (%),span deviation,mass concentration of particles derived from Lorenz-Mie calculation of OPC scattering (μg/m³),mass concentration of particles derived from Lorenz-Mie calculation of OPC scattering (μg/m³),mass concentration of particles derived from Lorenz-Mie calculation of OPC scattering (μg/m³)
DateTimeUTC,F1_M11,P_M11,Q1_M11,Q2_M11,T1_M11,T2_M11,T3_M11,T4_M11,T5_M11,U1_M11,ZSPAN_M11,X2_M11,X0_M11,X1_M11
2023-06-14 12:00:00,SystemResetWarning,0827.4,5.00,000.00,028.8,027.1,000.0,037.4,030.3,19.4,0000.0,0001.91,0004.93,0001.40
2023-06-14 12:01:00,SystemResetWarning,0827.3,5.00,000.00,028.8,027.1,000.0,037.4,030.3,19.2,0000.0,0001.90,0004.87,0001.42
2023-06-14 12:02:00,SystemResetWarning,0827.3,5.00,000.00,028.8,027.1,000.0,037.4,030.3,19.1,0000.0,0001.88,0003.79,0001.43
2023-06-14 12:03:00,SystemResetWarning,0827.4,5.00,000.00,028.8,027.1,000.0,037.4,030.3,19.0,0000.0,0001.94,0003.76,0001.44
2023-06-14 12:04:00,SystemResetWarning,0827.4,5.00,000.00,028.8,027.1,000.0,037.4,030.3,18.9,0000.0,0001.92,0003.65,0001.45
2023-06-14 12:05:00,SystemResetWarning,0827.4,5.00,000.00,028.8,027.0,000.0,037.4,030.3,18.9,0000.0,0001.96,0003.82,0001.46
2023-06-14 12:06:00,SystemResetWarning,0827.4,5.00,000.00,028.8,027.1,000.0,037.4,030.3,18.9,0000.0,0001.96,0003.31,0001.45
2023-06-14 12:07:00,SystemResetWarning,0827.4,5.00,000.00,028.8,027.1,000.0,037.4,030.3,18.9,0000.0,0001.94,0003.21,0001.45
2023-06-14 12:08:00,SystemResetWarning,0827.4,5.00,000.00,028.8,027.1,000.0,037.4,030.3,18.9,0000.0,0001.91,0003.15,0001.47
2023-06-14 12:09:00,SystemResetWarning,0827.4,5.00,000.00,028.8,027.1,000.0,037.4,030.3,18.9,0000.0,0001.92,0003.19,0001.48
2023-06-14 12:10:00,SystemResetWarning,0827.4,5.00,000.00,028.8,027.1,000.0,037.4,030.3,18.9,0000.0,0001.93,0003.32,0001.48
2023-06-14 12:11:00,SystemResetWarning,0827.3,5.00,000.00,028.8,027.1,000.0,037.4,030.3,18.9,0000.0,0001.92,0003.21,0001.48
2023-06-14 12:12:00,SystemResetWarning,0827.3,5.00,000.00,028.8,027.0,000.0,037.4,030.3,19.0,0000.0,0001.90,0003.12,0001.48
2023-06-14 12:13:00,SystemResetWarning,0827.3,5.00,000.00,028.8,027.0,000.0,037.4,030.3,19.0,0000.0,0001.89,0003.11,0001.47
2023-06-14 12:14:00,SystemResetWarning,0827.3,5.00,000.00,028.8,027.0,000.0,037.4,030.3,19.0,0000.0,0001.84,0002.97,0001.48
2023-06-14 12:15:00,SystemResetWarning,0827.3,5.00,000.00,028.8,027.0,000.0,037.4,030.3,19.1,0000.0,0001.85,0003.00,0001.49
2023-06-14 12:16:00,SystemResetWarning,0827.3,5.00,000.00,028.8,027.0,000.0,037.4,030.3,19.2,0000.0,0001.82,0002.81,0001.49
2023-06-14 12:17:00,SystemResetWarning,0827.3,5.00,000.00,028.8,027.0,000.0,037.4,030.3,19.1,0000.0,0001.86,0002.95,0001.51
2023-06-14 12:18:00,SystemResetWarning,0827.3,4.99,000.00,028.8,027.0,000.0,037.4,030.3,19.1,0000.0,0001.87,0003.06,0001.52
2023-06-14 12:19:00,SystemResetWarning,0827.3,5.00,000.00,028.8,027.0,000.0,037.4,030.3,19.0,0000.0,0001.88,0003.06,0001.52
2023-06-14 12:20:00,SystemResetWarning,0827.3,5.01,000.00,028.8,027.0,000.0,037.4,030.3,19.0,0000.0,0001.88,0003.03,0001.51
2023-06-14 12:21:00,SystemResetWarning,0827.4,5.00,000.00,028.8,027.0,000.0,037.4,030.3,19.2,0000.0,0001.87,0002.86,0001.52
2023-06-14 12:22:00,SystemResetWarning,0827.4,5.00,000.00,028.8,027.0,000.0,037.4,030.3,19.2,0000.0,0001.87,0002.89,0001.51
2023-06-14 12:23:00,SystemResetWarning,0827.3,5.00,000.00,028.8,027.0,000.0,037.4,030.3,19.2,0000.0,0001.85,0002.80,0001.50
2023-06-14 12:24:00,SystemResetWarning,0827.3,5.00,000.00,028.8,027.0,000.0,037.4,030.3,19.2,0000.0,0001.88,0002.87,0001.52
2023-06-14 12:25:00,SystemResetWarning,0827.3,5.00,000.00,028.8,027.0,000.0,037.4,030.3,19.1,0000.0,0001.89,0002.93,0001.52
2023-06-14 12:26:00,SystemResetWarning,0827.3,5.00,000.00,028.8,027.0,000.0,037.4,030.3,19.2,0000.0,0001.89,0002.91,0001.51
2023-06-14 12:27:00,SystemResetWarning,0827.4,5.00,000.00,028.8,027.0,000.0,037.4,030.3,19.3,0000.0,0001.86,0002.86,0001.50
2023-06-14 12:28:00,SystemResetWarning,0827.4,5.00,000.00,028.8,027.1,000.0,037.4,030.3,19.2,0000.0,0001.79,0002.69,0001.48
2023-06-14 12:29:00,SystemResetWarning,0827.4,5.00,000.00,028.8,027.1,000.0,037.4,030.3,19.3,0000.0,0001.74,0002.63,0001.46
2023-06-14 12:30:00,SystemResetWarning,0827.3,5.00,000.00,028.8,027.0,000.0,037.4,030.3,20.0,0000.0,0001.73,0002.69,0001.46
2023-06-14 12:31:00,SystemResetWarning,0827.4,5.00,000.00,028.8,027.0,000.0,037.4,030.3,21.7,0000.0,0001.74,0002.78,0001.47
2023-06-14 12:32:00,SystemResetWarning,0827.4,5.00,000.00,028.8,027.1,000.0,037.4,030.3,21.7,0000.0,0001.78,0002.86,0001.48
2023-06-14 12:33:00,SystemResetWarning,0827.4,5.01,000.00,028.8,027.0,000.0,037.4,030.3,21.7,0000.0,0001.83,0003.43,0001.47
2023-06-14 12:34:00,SystemResetWarning,0827.4,5.02,000.00,028.8,027.0,000.0,037.4,030.3,21.3,0000.0,0001.83,0003.59,0001.47
2023-06-14 12:35:00,SystemResetWarning,0827.4,4.99,000.00,028.8,027.0,000.0,037.4,030.3,22.4,0000.0,0001.85,0003.60,0001.47
2023-06-14 12:36:00,SystemResetWarning,0827.4,4.99,000.00,028.8,027.0,000.0,037.4,030.3,22.3,0000.0,0001.89,0003.65,0001.47
2023-06-14 12:37:00,SystemResetWarning,0827.4,4.99,000.00,028.8,027.0,000.0,037.4,030.3,21.6,0000.0,0001.96,0004.00,0001.48
2023-06-14 12:38:00,SystemResetWarning,0827.4,5.01,000.00,028.8,027.0,000.0,037.4,030.3,21.6,0000.0,0002.01,0004.22,0001.48
2023-06-14 12:39:00,SystemResetWarning,0827.4,5.00,000.00,028.8,027.0,000.0,037.4,030.3,21.5,0000.0,0002.04,0005.01,0001.49
2023-06-14 12:40:00,SystemResetWarning,0827.4,5.00,000.00,028.8,027.0,000.0,037.4,030.3,21.4,0000.0,0002.06,0005.26,0001.50
2023-06-14 12:41:00,SystemResetWarning,0827.4,5.01,000.00,028.8,027.0,000.0,037.4,030.3,20.6,0000.0,0002.08,0005.23,0001.51
2023-06-14 12:42:00,SystemResetWarning,0827.4,5.00,000.00,028.8,027.0,000.0,037.4,030.3,19.8,0000.0,0002.07,0005.14,0001.50
2023-06-14 12:43:00,SystemResetWarning,0827.4,5.00,000.00,028.8,027.0,000.0,037.4,030.3,20.2,0000.0,0002.04,0005.11,0001.49
2023-06-14 12:44:00,SystemResetWarning,0827.4,5.00,000.00,028.8,027.0,000.0,037.4,030.3,21.8,0000.0,0001.99,0004.74,0001.50
2023-06-14 12:45:00,SystemResetWarning,0827.4,5.00,000.00,028.8,027.1,000.0,037.4,030.3,21.3,0000.0,0002.03,0004.68,0001.52
2023-06-14 12:46:00,SystemResetWarning,0827.4,5.00,000.00,028.8,027.1,000.0,037.4,030.3,20.3,0000.0,0002.04,0004.89,0001.53
2023-06-14 12:47:00,SystemResetWarning,0827.4,5.00,000.00,028.8,027.1,000.0,037.4,030.3,19.9,0000.0,0001.98,0004.74,0001.55
2023-06-14 12:48:00,SystemResetWarning,0827.4,5.00,000.00,028.8,027.1,000.0,037.4,030.3,19.7,0000.0,0001.96,0004.50,0001.56
2023-06-14 12:49:00,SystemResetWarning,0827.4,5.00,000.00,028.8,027.1,000.0,037.4,030.3,19.6,0000.0,0001.96,0004.38,0001.58
2023-06-14 12:50:00,SystemResetWarning,0827.4,5.01,000.00,028.8,027.1,000.0,037.4,030.3,19.6,0000.0,0001.96,0003.97,0001.60
2023-06-14 12:51:00,SystemResetWarning,0827.4,5.01,000.00,028.8,027.1,000.0,037.4,030.3,19.6,0000.0,0002.01,0003.27,0001.62
2023-06-14 12:52:00,SystemResetWarning,0827.4,5.01,000.00,028.8,027.1,000.0,037.4,030.3,20.5,0000.0,0002.05,0003.41,0001.64
2023-06-14 12:53:00,SystemResetWarning,0827.4,5.00,000.00,028.8,027.1,000.0,037.4,030.3,20.4,0000.0,0002.08,0003.52,0001.65
2023-06-14 12:54:00,SystemResetWarning,0827.4,4.99,000.00,028.8,027.1,000.0,037.4,030.3,21.0,0000.0,0002.13,0003.58,0001.67
2023-06-14 12:55:00,SystemResetWarning,0827.4,4.99,000.00,028.8,027.1,000.0,037.4,030.3,20.2,0000.0,0002.13,0003.49,0001.69
2023-06-14 12:56:00,SystemResetWarning,0827.4,4.99,000.00,028.8,027.1,000.0,037.4,030.4,20.0,0000.0,0002.15,0003.52,0001.71
2023-06-14 12:57:00,SystemResetWarning,0827.4,5.02,000.00,028.8,027.1,000.0,037.4,030.4,19.8,0000.0,0002.18,0003.36,0001.74
2023-06-14 12:58:00,SystemResetWarning,0827.4,5.01,000.00,028.8,027.1,000.0,037.4,030.4,19.6,0000.0,0002.20,0003.49,0001.75
2023-06-14 12:59:00,SystemResetWarning,0827.4,4.99,000.00,028.8,027.1,000.0,037.4,030.4,19.4,0000.0,0002.24,0003.60,0001.76
